DLH4ME LPPT-LPMA

Flight info

Callsign DLH4ME
Flight time 1h 28m
Altitude 35000
Route ULVOT DCT GALPA DCT RAKUN
Aircraft A320/M-SDE3FGHIRWY/LB1

Departure

Time 2026-05-05 16:37
Airport Lisbon Humberto Delgado Airport (LPPT)

Arrival

Time 2026-05-05 18:05
Airport Cristiano Ronaldo International Airport (LPMA)
Time Latitude Longitude Altitude Speed Heading
2026-05-05 16:37 38.50054 -9.14030 17843 ft 377 kts 207°
2026-05-05 16:37 38.47630 -9.15320 18455 ft 379 kts 207°
2026-05-05 16:37 38.45189 -9.16615 18991 ft 381 kts 207°
2026-05-05 16:37 38.42761 -9.17970 19495 ft 381 kts 212°
2026-05-05 16:38 38.40533 -9.19773 20000 ft 378 kts 221°
2026-05-05 16:38 38.38443 -9.21831 20494 ft 380 kts 221°
2026-05-05 16:38 38.36343 -9.23883 20990 ft 383 kts 221°
2026-05-05 16:38 38.34221 -9.25947 21468 ft 385 kts 221°
2026-05-05 16:39 38.32078 -9.28028 21948 ft 388 kts 221°
2026-05-05 16:39 38.29930 -9.30114 22430 ft 390 kts 221°
2026-05-05 16:39 38.27770 -9.32211 22896 ft 392 kts 222°
2026-05-05 16:39 38.25595 -9.34325 23349 ft 395 kts 222°
2026-05-05 16:40 38.23401 -9.36457 23776 ft 397 kts 222°
2026-05-05 16:40 38.21201 -9.38590 24156 ft 399 kts 222°
2026-05-05 16:40 38.18991 -9.40735 24549 ft 400 kts 222°
2026-05-05 16:40 38.16770 -9.42891 24928 ft 402 kts 222°
2026-05-05 16:41 38.14544 -9.45052 25301 ft 404 kts 222°
2026-05-05 16:41 38.12308 -9.47221 25665 ft 405 kts 222°
2026-05-05 16:41 38.10061 -9.49394 26030 ft 407 kts 222°
2026-05-05 16:41 38.07803 -9.51571 26390 ft 408 kts 223°
2026-05-05 16:42 38.05540 -9.53751 26745 ft 410 kts 223°
2026-05-05 16:42 38.03258 -9.55949 27100 ft 412 kts 223°
2026-05-05 16:42 38.00972 -9.58150 27453 ft 413 kts 223°
2026-05-05 16:42 37.98691 -9.60379 27799 ft 414 kts 224°
2026-05-05 16:43 37.96460 -9.62686 28142 ft 415 kts 225°
2026-05-05 16:43 37.94260 -9.65053 28464 ft 416 kts 226°
2026-05-05 16:43 37.92066 -9.67452 28773 ft 417 kts 226°
2026-05-05 16:43 37.89862 -9.69860 29081 ft 419 kts 226°
2026-05-05 16:44 37.87638 -9.72272 29375 ft 421 kts 226°
2026-05-05 16:44 37.85405 -9.74669 29674 ft 423 kts 226°
2026-05-05 16:44 37.83149 -9.77069 29971 ft 424 kts 226°
2026-05-05 16:44 37.80880 -9.79470 30241 ft 426 kts 225°
2026-05-05 16:45 37.78601 -9.81877 30496 ft 427 kts 225°
2026-05-05 16:45 37.76352 -9.84256 30843 ft 425 kts 226°
2026-05-05 16:45 37.74090 -9.86647 31189 ft 424 kts 225°
2026-05-05 16:45 37.71832 -9.89035 31532 ft 423 kts 226°
2026-05-05 16:46 37.69576 -9.91423 31874 ft 422 kts 226°
2026-05-05 16:46 37.67301 -9.93831 32214 ft 421 kts 226°
2026-05-05 16:46 37.65067 -9.96195 32551 ft 419 kts 226°
2026-05-05 16:46 37.62863 -9.98594 32873 ft 416 kts 230°
2026-05-05 16:47 37.60953 -10.01288 33201 ft 410 kts 236°
2026-05-05 16:47 37.59176 -10.04104 33529 ft 409 kts 236°
2026-05-05 16:47 37.57428 -10.06867 33856 ft 408 kts 236°
2026-05-05 16:47 37.55656 -10.09657 34177 ft 407 kts 236°
2026-05-05 16:48 37.53885 -10.12438 34452 ft 407 kts 236°
2026-05-05 16:48 37.52095 -10.15245 34721 ft 406 kts 236°
2026-05-05 16:48 37.50345 -10.17989 34968 ft 406 kts 236°
2026-05-05 16:48 37.48579 -10.20756 35093 ft 406 kts 236°
2026-05-05 16:49 37.45039 -10.26304 35119 ft 406 kts 236°
2026-05-05 16:49 37.41506 -10.31838 35112 ft 406 kts 236°
2026-05-05 16:50 37.37965 -10.37368 35132 ft 406 kts 235°
2026-05-05 16:50 37.34412 -10.42891 35127 ft 406 kts 235°
2026-05-05 16:51 37.30860 -10.48421 35120 ft 407 kts 235°
2026-05-05 16:51 37.27306 -10.53954 35123 ft 407 kts 235°
2026-05-05 16:52 37.23740 -10.59480 35122 ft 407 kts 235°
2026-05-05 16:52 37.20167 -10.65006 35127 ft 408 kts 235°
2026-05-05 16:53 37.16589 -10.70534 35126 ft 408 kts 235°
2026-05-05 16:53 37.13013 -10.76062 35128 ft 408 kts 235°
2026-05-05 16:54 37.09428 -10.81585 35128 ft 409 kts 235°
2026-05-05 16:54 37.05839 -10.87105 35130 ft 409 kts 235°
2026-05-05 16:55 37.02242 -10.92620 35129 ft 409 kts 235°
2026-05-05 16:55 36.98651 -10.98130 35133 ft 409 kts 235°
2026-05-05 16:56 36.95052 -11.03641 35134 ft 409 kts 235°
2026-05-05 16:56 36.91453 -11.09146 35139 ft 408 kts 235°
2026-05-05 16:57 36.87875 -11.14601 35138 ft 408 kts 235°
2026-05-05 16:57 36.84269 -11.20081 35139 ft 408 kts 234°
2026-05-05 16:58 36.80665 -11.25544 35138 ft 407 kts 235°
2026-05-05 16:58 36.77071 -11.31007 35140 ft 407 kts 235°
2026-05-05 16:59 36.73484 -11.36455 35141 ft 406 kts 235°
2026-05-05 16:59 36.69896 -11.41884 35145 ft 405 kts 235°
2026-05-05 17:00 36.66312 -11.47297 35144 ft 404 kts 235°
2026-05-05 17:00 36.62739 -11.52693 35140 ft 404 kts 235°
2026-05-05 17:01 36.59161 -11.58071 35142 ft 403 kts 235°
2026-05-05 17:01 36.55583 -11.63434 35146 ft 402 kts 236°
2026-05-05 17:02 36.52018 -11.68792 35150 ft 402 kts 236°
2026-05-05 17:02 36.48457 -11.74138 35150 ft 401 kts 236°
2026-05-05 17:03 36.44894 -11.79463 35147 ft 401 kts 235°
2026-05-05 17:03 36.41322 -11.84772 35140 ft 400 kts 236°
2026-05-05 17:04 36.37790 -11.90049 35145 ft 400 kts 236°
2026-05-05 17:04 36.34229 -11.95363 35141 ft 401 kts 235°
2026-05-05 17:05 36.30659 -12.00679 35144 ft 401 kts 235°
2026-05-05 17:05 36.27083 -12.05992 35140 ft 401 kts 235°
2026-05-05 17:06 36.23501 -12.11300 35142 ft 401 kts 235°
2026-05-05 17:06 36.19913 -12.16600 35140 ft 401 kts 235°
2026-05-05 17:07 36.16330 -12.21901 35140 ft 401 kts 234°
2026-05-05 17:07 36.12736 -12.27191 35140 ft 402 kts 234°
2026-05-05 17:08 36.09161 -12.32452 35144 ft 402 kts 234°
2026-05-05 17:08 36.05566 -12.37745 35139 ft 402 kts 234°
2026-05-05 17:09 36.01964 -12.43035 35141 ft 402 kts 234°
2026-05-05 17:09 35.98363 -12.48321 35138 ft 402 kts 234°
2026-05-05 17:10 35.94756 -12.53605 35138 ft 402 kts 234°
2026-05-05 17:10 35.91141 -12.58881 35140 ft 403 kts 234°
2026-05-05 17:11 35.87526 -12.64157 35138 ft 403 kts 234°
2026-05-05 17:11 35.83905 -12.69428 35148 ft 403 kts 234°
2026-05-05 17:12 35.80283 -12.74696 35134 ft 403 kts 234°
2026-05-05 17:12 35.76658 -12.79966 35141 ft 403 kts 234°
2026-05-05 17:13 35.73641 -12.84335 35139 ft 403 kts 234°
2026-05-05 17:13 35.70010 -12.89592 35135 ft 403 kts 234°
2026-05-05 17:14 35.66377 -12.94852 35143 ft 403 kts 233°
2026-05-05 17:14 35.62745 -13.00096 35137 ft 403 kts 233°
2026-05-05 17:15 35.59107 -13.05335 35145 ft 403 kts 233°
2026-05-05 17:15 35.55467 -13.10569 35135 ft 403 kts 233°
2026-05-05 17:16 35.51824 -13.15801 35138 ft 403 kts 233°
2026-05-05 17:16 35.48184 -13.21028 35135 ft 403 kts 233°
2026-05-05 17:17 35.44542 -13.26255 35150 ft 403 kts 233°
2026-05-05 17:17 35.40915 -13.31435 35137 ft 403 kts 233°
2026-05-05 17:18 35.37263 -13.36647 35143 ft 403 kts 233°
2026-05-05 17:18 35.33608 -13.41857 35144 ft 403 kts 233°
2026-05-05 17:19 35.29952 -13.47068 35148 ft 403 kts 233°
2026-05-05 17:19 35.26290 -13.52272 35144 ft 403 kts 233°
2026-05-05 17:20 35.22627 -13.57473 35148 ft 404 kts 233°
2026-05-05 17:20 35.18958 -13.62676 35152 ft 404 kts 233°
2026-05-05 17:21 35.15294 -13.67876 35155 ft 404 kts 232°
2026-05-05 17:22 35.09781 -13.75665 35160 ft 404 kts 232°
2026-05-05 17:22 35.06099 -13.80852 35160 ft 404 kts 232°
2026-05-05 17:23 35.02412 -13.86040 35161 ft 404 kts 232°
2026-05-05 17:23 34.98719 -13.91217 35158 ft 405 kts 232°
2026-05-05 17:24 34.95025 -13.96396 35156 ft 405 kts 232°
2026-05-05 17:24 34.91337 -14.01582 35153 ft 405 kts 232°
2026-05-05 17:25 34.87671 -14.06728 35151 ft 405 kts 232°
2026-05-05 17:25 34.83970 -14.11901 35151 ft 405 kts 232°
2026-05-05 17:26 34.80260 -14.17067 35147 ft 405 kts 231°
2026-05-05 17:26 34.76555 -14.22232 35149 ft 405 kts 231°
2026-05-05 17:27 34.72841 -14.27402 35145 ft 406 kts 231°
2026-05-05 17:27 34.69123 -14.32562 35145 ft 406 kts 231°
2026-05-05 17:28 34.65390 -14.37736 35144 ft 407 kts 231°
2026-05-05 17:28 34.61652 -14.42902 35150 ft 407 kts 231°
2026-05-05 17:29 34.57919 -14.48068 35146 ft 407 kts 231°
2026-05-05 17:29 34.54184 -14.53234 35145 ft 407 kts 231°
2026-05-05 17:30 34.50438 -14.58398 35149 ft 408 kts 231°
2026-05-05 17:30 34.46690 -14.63559 35144 ft 408 kts 231°
2026-05-05 17:31 34.42941 -14.68715 35144 ft 408 kts 231°
2026-05-05 17:31 34.39181 -14.73863 35141 ft 408 kts 230°
2026-05-05 17:32 34.35314 -14.78851 35136 ft 409 kts 229°
2026-05-05 17:32 34.31338 -14.83794 35138 ft 410 kts 228°
2026-05-05 17:33 34.27368 -14.88756 35139 ft 411 kts 229°
2026-05-05 17:33 34.23415 -14.93744 35250 ft 411 kts 229°
2026-05-05 17:34 34.19445 -14.98752 35136 ft 413 kts 229°
2026-05-05 17:34 34.15467 -15.03764 35129 ft 414 kts 229°
2026-05-05 17:35 34.11478 -15.08782 35127 ft 414 kts 229°
2026-05-05 17:35 34.07477 -15.13804 35129 ft 415 kts 229°
2026-05-05 17:36 34.03473 -15.18820 35133 ft 415 kts 229°
2026-05-05 17:36 33.99474 -15.23829 35132 ft 415 kts 229°
2026-05-05 17:37 33.95469 -15.28829 35133 ft 414 kts 229°
2026-05-05 17:37 33.91469 -15.33818 35134 ft 414 kts 229°
2026-05-05 17:38 33.87472 -15.38796 35131 ft 414 kts 229°
2026-05-05 17:38 33.83466 -15.43777 35129 ft 414 kts 229°
2026-05-05 17:39 33.79464 -15.48747 35126 ft 414 kts 229°
2026-05-05 17:39 33.75486 -15.53692 35130 ft 414 kts 229°
2026-05-05 17:40 33.71475 -15.58667 35129 ft 414 kts 228°
2026-05-05 17:40 33.67426 -15.63664 35133 ft 414 kts 228°
2026-05-05 17:41 33.63406 -15.68621 35134 ft 414 kts 228°
2026-05-05 17:41 33.59395 -15.73573 35135 ft 414 kts 228°
2026-05-05 17:42 33.55380 -15.78521 35130 ft 414 kts 228°
2026-05-05 17:42 33.51298 -15.83386 35128 ft 414 kts 227°
2026-05-05 17:43 33.47195 -15.88137 34749 ft 411 kts 227°
2026-05-05 17:43 33.45138 -15.90517 34058 ft 411 kts 227°
2026-05-05 17:43 33.43086 -15.92904 33250 ft 412 kts 227°
2026-05-05 17:43 33.40852 -15.95083 32414 ft 419 kts 213°
2026-05-05 17:44 33.38123 -15.96386 31639 ft 428 kts 196°
2026-05-05 17:44 33.35136 -15.96612 31017 ft 435 kts 179°
2026-05-05 17:44 33.32165 -15.95819 30394 ft 440 kts 167°
2026-05-05 17:44 33.29241 -15.94721 29715 ft 439 kts 167°
2026-05-05 17:45 33.26341 -15.93619 29072 ft 436 kts 167°
2026-05-05 17:45 33.23462 -15.92528 28436 ft 433 kts 167°
2026-05-05 17:45 33.20598 -15.91446 27852 ft 429 kts 167°
2026-05-05 17:45 33.17759 -15.90378 27299 ft 426 kts 167°
2026-05-05 17:46 33.14943 -15.89322 26734 ft 423 kts 167°
2026-05-05 17:46 33.12142 -15.88276 26159 ft 419 kts 167°
2026-05-05 17:46 33.09369 -15.87245 25605 ft 416 kts 167°
2026-05-05 17:46 33.06615 -15.86225 25057 ft 413 kts 167°
2026-05-05 17:47 33.03875 -15.85214 24516 ft 410 kts 167°
2026-05-05 17:47 33.01156 -15.84214 23983 ft 408 kts 167°
2026-05-05 17:47 32.98458 -15.83225 23434 ft 405 kts 167°
2026-05-05 17:47 32.95776 -15.82245 22856 ft 402 kts 167°
2026-05-05 17:48 32.93115 -15.81276 22320 ft 398 kts 167°
2026-05-05 17:48 32.90470 -15.80319 21789 ft 395 kts 167°
2026-05-05 17:48 32.87847 -15.79376 21292 ft 392 kts 167°
2026-05-05 17:48 32.85245 -15.78445 20802 ft 389 kts 167°
2026-05-05 17:49 32.82659 -15.77526 20319 ft 386 kts 167°
2026-05-05 17:49 32.80050 -15.76997 19840 ft 377 kts 182°
2026-05-05 17:49 32.77518 -15.77357 19381 ft 368 kts 199°
2026-05-05 17:49 32.75215 -15.78565 18917 ft 359 kts 216°
2026-05-05 17:50 32.73341 -15.80478 18455 ft 353 kts 232°
2026-05-05 17:50 32.72028 -15.82907 17950 ft 348 kts 247°
2026-05-05 17:50 32.71340 -15.85632 17454 ft 344 kts 262°
2026-05-05 17:50 32.71300 -15.88455 16979 ft 342 kts 277°
2026-05-05 17:51 32.71798 -15.91211 16499 ft 340 kts 283°
2026-05-05 17:51 32.72356 -15.93939 16019 ft 339 kts 283°
2026-05-05 17:51 32.72910 -15.96651 15571 ft 337 kts 283°
2026-05-05 17:51 32.73458 -15.99346 15131 ft 335 kts 283°
2026-05-05 17:52 32.74002 -16.02029 14703 ft 334 kts 283°
2026-05-05 17:52 32.74539 -16.04699 14347 ft 332 kts 283°
2026-05-05 17:52 32.75074 -16.07355 13968 ft 329 kts 283°
2026-05-05 17:52 32.75605 -16.09991 13480 ft 327 kts 283°
2026-05-05 17:53 32.76131 -16.12614 12993 ft 326 kts 283°
2026-05-05 17:53 32.76654 -16.15227 12507 ft 325 kts 283°
2026-05-05 17:53 32.77176 -16.17835 12004 ft 324 kts 283°
2026-05-05 17:53 32.77701 -16.20436 11519 ft 323 kts 283°
2026-05-05 17:54 32.78223 -16.23033 11035 ft 322 kts 284°
2026-05-05 17:54 32.78738 -16.25587 10573 ft 322 kts 284°
2026-05-05 17:54 32.79264 -16.28204 10093 ft 321 kts 284°
2026-05-05 17:54 32.79766 -16.30713 9938 ft 310 kts 284°
2026-05-05 17:55 32.80257 -16.33157 9805 ft 298 kts 284°
2026-05-05 17:55 32.80726 -16.35508 9642 ft 288 kts 284°
2026-05-05 17:55 32.81182 -16.37805 9323 ft 284 kts 284°
2026-05-05 17:55 32.81633 -16.40085 8942 ft 282 kts 284°
2026-05-05 17:56 32.82084 -16.42349 8558 ft 281 kts 284°
2026-05-05 17:56 32.82534 -16.44601 8148 ft 280 kts 284°
2026-05-05 17:56 32.82982 -16.46845 7774 ft 278 kts 284°
2026-05-05 17:56 32.83425 -16.49072 7437 ft 274 kts 284°
2026-05-05 17:57 32.83852 -16.51233 7317 ft 262 kts 284°
2026-05-05 17:57 32.84267 -16.53375 6755 ft 269 kts 283°
2026-05-05 17:57 32.84683 -16.55500 6632 ft 258 kts 283°
2026-05-05 17:57 32.84804 -16.57593 6366 ft 254 kts 262°
2026-05-05 17:58 32.84227 -16.59553 6040 ft 251 kts 238°
2026-05-05 17:58 32.83056 -16.61075 5681 ft 250 kts 214°
2026-05-05 17:58 32.81660 -16.62206 5448 ft 236 kts 213°
2026-05-05 17:58 32.80347 -16.63286 5332 ft 221 kts 213°
2026-05-05 17:59 32.79117 -16.64306 5104 ft 210 kts 214°
2026-05-05 17:59 32.77976 -16.65256 5014 ft 195 kts 214°
2026-05-05 17:59 32.76899 -16.66149 4936 ft 182 kts 214°
2026-05-05 17:59 32.75883 -16.66998 4783 ft 175 kts 213°
2026-05-05 18:00 32.74903 -16.67816 4606 ft 170 kts 213°
2026-05-05 18:00 32.74267 -16.68340 4508 ft 166 kts 211°
2026-05-05 18:00 32.72924 -16.69313 4004 ft 178 kts 207°
2026-05-05 18:00 32.72191 -16.69822 3606 ft 191 kts 206°
2026-05-05 18:01 32.70996 -16.70650 3069 ft 204 kts 207°
2026-05-05 18:01 32.69761 -16.71511 2997 ft 209 kts 208°
2026-05-05 18:01 32.68499 -16.72396 3000 ft 211 kts 208°
2026-05-05 18:01 32.67231 -16.73289 3000 ft 212 kts 207°
2026-05-05 18:02 32.65958 -16.74184 3021 ft 213 kts 207°
2026-05-05 18:02 32.64679 -16.75082 2785 ft 214 kts 207°
2026-05-05 18:02 32.63404 -16.75980 2472 ft 212 kts 208°
2026-05-05 18:02 32.62227 -16.77009 2162 ft 211 kts 233°
2026-05-05 18:03 32.61848 -16.78608 1871 ft 201 kts 282°
2026-05-05 18:03 32.62521 -16.79940 1564 ft 185 kts 333°
2026-05-05 18:03 32.63677 -16.80368 1330 ft 168 kts 358°
2026-05-05 18:03 32.64787 -16.80362 1137 ft 149 kts 11°
2026-05-05 18:04 32.65762 -16.80214 998 ft 137 kts 12°
2026-05-05 18:04 32.66689 -16.80069 775 ft 131 kts 15°
2026-05-05 18:04 32.67535 -16.79711 593 ft 129 kts 27°
2026-05-05 18:04 32.68293 -16.79151 431 ft 130 kts 40°
2026-05-05 18:05 32.68938 -16.78405 208 ft 130 kts 34°
2026-05-05 18:05 32.69550 -16.77732 195 ft 94 kts 43°
2026-05-05 18:05 32.69812 -16.77421 206 ft 28 kts 49°
2026-05-05 18:05 32.69936 -16.77276 207 ft 22 kts 42°
2026-05-05 18:06 32.69967 -16.77180 198 ft 1 kts 133°
2026-05-05 18:06 32.69964 -16.77180 199 ft 2 kts 153°
2026-05-05 18:06 32.69830 -16.77205 191 ft 17 kts 221°
2026-05-05 18:06 32.69750 -16.77284 182 ft 13 kts 221°
2026-05-05 18:07 32.69703 -16.77348 181 ft 8 kts 227°
2026-05-05 18:07 32.69649 -16.77415 180 ft 16 kts 225°
2026-05-05 18:07 32.69580 -16.77503 179 ft 13 kts 227°
2026-05-05 18:07 32.69530 -16.77567 177 ft 9 kts 227°
2026-05-05 18:08 32.69473 -16.77630 176 ft 15 kts 224°
2026-05-05 18:08 32.69412 -16.77705 174 ft 12 kts 227°
2026-05-05 18:08 32.69363 -16.77719 173 ft 6 kts 149°
2026-05-05 18:08 32.69343 -16.77703 173 ft 1 kts 142°
2026-05-05 18:09 32.69337 -16.77698 173 ft 1 kts 142°
2026-05-05 18:09 32.69333 -16.77694 173 ft 1 kts 140°
2026-05-05 18:09 32.69332 -16.77692 173 ft 1 kts 139°